Lid_Strength_Index
-1 -1 -1 -0 -0 0 -0 -0 -1 -1 -2 -1 -2 -2 -2 -1 -1 -1 -1 -0 -0 -0
-1 -1 -1 -1 -1 -0 -1 -1 -1 -1 -1 -1 -2 -2 -2 -1 -1 -1 -1 -1 -1 -0
-0 -1 -1 -1 -1 -1 -1 -1 -1 -1 -1 -1 -1 -2 -1 -1 -1 -1 -1 -0 -1 -1
-0 -1 -1 -0 -1 -1 -1 -1 -1 -1 -1 -1 -1 -1 -1 -1 -1 -0 -1 -1 -1 -1
-0 -1 -0 -0 -1 -1 -1 -1 -1 -1 -1 -1 -1 -1 -1 -0 -1 -0 -0 -0 -0 -0
0 -0 -0 -0 -1 -1 -1 -1 -1 -1 -1 -1 -1 -1 -1 -1 -1 -1 -0 -1 -0 -0
0 -0 -0 -1 -1 -1 -1 -1 -1 -1 -1 -1 -1 -1 -1 -1 -1 -1 -1 -1 -1 -1
0 -0 -0 -0 -0 -1 -1 -1 -1 -1 -1 -1 -1 -0 -1 -1 -1 -1 -0 -1 -1 -1
0 0 0 0 -0 -0 -0 -1 -1 -0 -0 -0 -1 5 3 1 -0 -1 -0 0 -0 -1
0 1 0 0 0 1 0 -0 0 -0 -0 0 -0 6 5 3 -0 -0 -0 -1 -0 -0
1 1 0 1 1 0 0 0 0 0 0 0 1 5 5 4 -1 -1 -1 -1 -1 -1
3 3 3 1 1 0 0 0 0 0 0 1 3 7 7 3 -1 -0 0 -0 2 -0
4 4 4 4 2 1 -0 0 0 0 1 3 3 9 8 4 -0 0 0 -0 -0 5
4 4 4 3 2 2 1 -0 1 1 1 3 4 5 8 8 2 2 1 2 1 1